User: anonymous   Login
Location: Caltech
(34.1382°N, 118.1253°W)
Time: 23:43:07
(UTC-07:00)
Language:

Hubble Space Telescope - Orbit

View from above orbital plane
View from above orbital plane
View from above satellite
View from above satellite

Ground track
Ground track

The orbit data is extracted from the following two-line orbital elements,

1 20580U 90037B   17147.62056713 +.00000500 +00000-0 +19871-4 0  9999
2 20580 028.4688 143.4188 0002539 316.1377 004.6503 15.08769186287083
Epoch (UTC): 27 May 2017 14:53:37
Eccentricity: 0.0002539
inclination: 28.4688°
perigee height: 538 km
apogee height: 542 km
right ascension of ascending node: 143.4188°
argument of perigee: 316.1377°
revolutions per day: 15.08769186
mean anomaly at epoch: 4.6503°
orbit number at epoch: 28708

The dashed part of the orbit path shows where the satellite is in the earth's shadow,  

DLR